Regional Weather Roundup
Issued by NWS Cleveland, OH

Home | Current Version | Previous Version | Text Only | Print | Product List | Glossary Off
Versions: 1 2 3 4 5 6 7 8 9 10 11 12 13 14 15 16 17 18 19 20 21 22 23 24 25 26 27 28 29 30 31 32 33 34 35 36 37 38 39 40 41 42 43 44 45 46 47 48 49 50

000
ASUS41 KCLE 010710
RWRCLE
OHIO REGIONAL WEATHER ROUNDUP
NATIONAL WEATHER SERVICE CLEVELAND, OH
300 AM EDT SUN MAY 01 2016

NOTE: "FAIR" INDICATES FEW OR NO CLOUDS BELOW 12,000 FEET WITH NO
SIGNIFICANT WEATHER AND/OR OBSTRUCTIONS TO VISIBILITY.

OHZ001>008-015>018-024>027-034-035-043-044-010800-
   NORTHWEST OHIO

CITY           SKY/WX    TMP DP  RH WIND       PRES   REMARKS
DEFIANCE       CLOUDY    51  48  89 NE7       29.87F FOG
FINDLAY        CLOUDY    55  51  86 CALM      29.86S FOG
TOLEDO EXPRESS CLOUDY    49  48  97 NE12      29.88S
TOLEDO EXEC    LGT RAIN  49  47  93 NE6       29.89F FOG
LIMA           CLOUDY    58  57  97 S10       29.86F FOG
$$

OHZ009>014-019>023-028>033-038-089-010800-
   NORTHEAST OHIO

CITY           SKY/WX    TMP DP  RH WIND       PRES   REMARKS
CLE-HOPKINS    LGT RAIN  57  55  93 S8        29.90F
CLE-LAKEFRONT  LGT RAIN  56  54  93 S9        29.87F
CUY CO. ARPT   NOT AVBL
LORAIN-ELYRIA  RAIN      54  52  93 S12       29.86F FOG
ASHTABULA      LGT RAIN  51  50  96 SE10      29.91F
AKRON-CANTON   CLOUDY    56  55  97 S8        29.90F FOG
WOOSTER        CLOUDY    55  55 100 S7        29.89F FOG
MANSFIELD      LGT RAIN  57  57 100 S8        29.89F
YOUNGSTOWN     CLOUDY    52  51  97 SE8       29.90F FOG
$$

OHZ042-051>053-060>062-070>072-077>081-010800-
  SOUTHWEST OHIO

CITY           SKY/WX    TMP DP  RH WIND       PRES   REMARKS
CINC-COVINGTON CLOUDY    62  61  96 SW7       29.90F
CINC-LUNKEN    LGT RAIN  61  61 100 CALM      29.90F
HAMILTON       CLOUDY    61  60  97 CALM      29.91S
DAYTON         LGT RAIN  59  59 100 S10       29.88F FOG
WRIGHT-PAT AFB DRIZZLE   60  60 100 SW7       29.88F FOG
DAYTON GENERAL LGT RAIN  60  58  92 SW8       29.89F FOG
WILMINGTON     LGT RAIN  60  59  96 SW12      29.90R
$$

OHZ036-037-039>041-045>050-054>059-063>069-073>076-082>088-010800-
  CENTRAL AND SOUTHEAST OHIO

CITY           SKY/WX    TMP DP  RH WIND       PRES   REMARKS
COLUMBUS       CLOUDY    57  57 100 S7        29.89F FOG
OSU AIRPORT    LGT RAIN  59  58  96 S6        29.89F FOG
BOLTON FIELD   CLOUDY    58  58 100 SW5       29.90S
RICKENBACK AFB CLOUDY    58  57  99 S5        29.88F FOG
NEWARK         CLOUDY    61  57  87 S7        29.89F
MARION         HVY RAIN  58  56  93 S9        29.89S FOG
LANCASTER      MOCLDY    60  57  89 S6        29.90F
ZANESVILLE     CLOUDY    62  59  90 SW6       29.91F
NEW PHILLY     CLOUDY    59  57  93 VRB6      29.91F
$$




USA.gov is the U.S. government's official web portal to all federal, state and local government web resources and services.